When you browse on this site, cookies collect data to enhance your experience and personalize the content and advertising you see.
Visit our Privacy Policy to learn more. By continuing to use the site, you agree to this use of cookies and data.
  • In Hungary
  • List of Countries
  • For 7 days
  • Water Temperature
  • Satellite Maps
  • Weather Map
  • News
  • Weather Widgets
  • user-avatar
    Login

    Hourly Weather Huai'an

    Today, 18 December, Tuesday

    Time Temperature Precipitation Wind Pressure Humidity
    00:00 +10°C° 0 mm 1 mps 769 mmHg 62%
    01:00 +10°C° 0 mm 1 mps 769 mmHg 62%
    02:00 +10°C° 0 mm 1 mps 768 mmHg 61%
    03:00 +9°C° 0 mm 1 mps 768 mmHg 60%
    04:00 +9°C° 0 mm 1 mps 768 mmHg 59%
    05:00 +9°C° 0 mm 1 mps 768 mmHg 59%
    06:00 +10°C° 0 mm 1 mps 769 mmHg 58%
    07:00 +11°C° 0 mm 1 mps 769 mmHg 57%
    08:00 +12°C° 0 mm 1 mps 769 mmHg 60%
    09:00 +15°C° 0 mm 1 mps 769 mmHg 55%
    10:00 +18°C° 0 mm 1 mps 768 mmHg 51%
    11:00 +20°C° 0 mm 1 mps 768 mmHg 46%
    12:00 +20°C° 0 mm 2 mps 767 mmHg 45%
    13:00 +20°C° 0 mm 2 mps 767 mmHg 44%
    14:00 +22°C° 0 mm 1 mps 766 mmHg 42%
    15:00 +20°C° 0 mm 1 mps 766 mmHg 48%
    16:00 +19°C° 0 mm 1 mps 766 mmHg 55%
    17:00 +16°C° 0 mm 1 mps 766 mmHg 62%
    18:00 +15°C° 0 mm 1 mps 766 mmHg 65%
    19:00 +14°C° 0 mm 1 mps 767 mmHg 69%
    20:00 +13°C° 0 mm 1 mps 767 mmHg 73%
    21:00 +13°C° 0 mm 1 mps 767 mmHg 74%
    22:00 +13°C° 0 mm 1 mps 767 mmHg 76%
    23:00 +13°C° 0 mm 1 mps 767 mmHg 78%

    Tomorrow, 19 December, Wednesday

    Time Temperature Precipitation Wind Pressure Humidity
    00:00 +12°C° 0 mm 1 mps 767 mmHg 78%
    01:00 +12°C° 0 mm 1 mps 767 mmHg 78%
    02:00 +12°C° 0 mm 1 mps 767 mmHg 79%
    03:00 +12°C° 0 mm 1 mps 767 mmHg 78%
    04:00 +12°C° 0 mm 1 mps 767 mmHg 78%
    05:00 +12°C° 0 mm 1 mps 766 mmHg 77%
    06:00 +13°C° 0 mm 1 mps 766 mmHg 75%
    07:00 +13°C° 0 mm 1 mps 767 mmHg 73%
    08:00 +14°C° 0 mm 1 mps 767 mmHg 71%
    09:00 +16°C° 0 mm 1 mps 766 mmHg 66%
    10:00 +19°C° 0 mm 2 mps 766 mmHg 60%
    11:00 +21°C° 0 mm 2 mps 766 mmHg 54%
    12:00 +23°C° 0 mm 2 mps 765 mmHg 53%
    13:00 +23°C° 0 mm 2 mps 764 mmHg 52%
    14:00 +24°C° 0 mm 2 mps 764 mmHg 51%
    15:00 +21°C° 0 mm 2 mps 764 mmHg 58%
    16:00 +21°C° 0 mm 1 mps 763 mmHg 65%
    17:00 +20°C° 0 mm 1 mps 763 mmHg 72%
    18:00 +19°C° 0 mm 1 mps 764 mmHg 76%
    19:00 +18°C° 0 mm 1 mps 764 mmHg 80%
    20:00 +16°C° 0 mm 1 mps 764 mmHg 85%
    21:00 +16°C° 0 mm 1 mps 764 mmHg 85%
    22:00 +16°C° 0 mm 1 mps 764 mmHg 86%
    23:00 +15°C° 0 mm 1 mps 764 mmHg 87%

    Day after tomorrow, 20 December, Thursday

    Time Temperature Precipitation Wind Pressure Humidity
    00:00 +15°C° 0 mm 1 mps 764 mmHg 86%
    01:00 +15°C° 0 mm 1 mps 763 mmHg 86%
    02:00 +15°C° 0 mm 1 mps 763 mmHg 85%
    03:00 +15°C° 0 mm 1 mps 763 mmHg 84%
    04:00 +15°C° 0 mm 1 mps 763 mmHg 83%
    05:00 +15°C° 0 mm 1 mps 763 mmHg 82%
    06:00 +16°C° 0 mm 1 mps 763 mmHg 79%
    07:00 +16°C° 0 mm 1 mps 763 mmHg 76%
    08:00 +18°C° 0 mm 1 mps 764 mmHg 73%
    09:00 +19°C° 0.2 mm 1 mps 764 mmHg 72%
    10:00 +20°C° 0.2 mm 1 mps 764 mmHg 71%
    11:00 +20°C° 0.2 mm 1 mps 764 mmHg 70%
    12:00 +21°C° 0.1 mm 1 mps 763 mmHg 70%
    13:00 +21°C° 0.1 mm 1 mps 762 mmHg 70%
    14:00 +22°C° 0.1 mm 1 mps 761 mmHg 70%
    15:00 +21°C° 0 mm 1 mps 761 mmHg 73%
    16:00 +21°C° 0 mm 1 mps 761 mmHg 77%
    17:00 +20°C° 0 mm 1 mps 761 mmHg 80%
    18:00 +20°C° 0 mm 1 mps 762 mmHg 82%
    19:00 +20°C° 0 mm 1 mps 762 mmHg 84%
    20:00 +19°C° 0 mm 1 mps 763 mmHg 86%
    21:00 +19°C° 0 mm 1 mps 763 mmHg 87%
    22:00 +19°C° 0 mm 1 mps 763 mmHg 88%
    23:00 +19°C° 0 mm 1 mps 763 mmHg 89%

    21 December, Friday

    Time Temperature Precipitation Wind Pressure Humidity
    00:00 +19°C° 0 mm 1 mps 763 mmHg 90%
    01:00 +19°C° 0 mm 1 mps 763 mmHg 91%
    02:00 +19°C° 0 mm 1 mps 763 mmHg 91%
    03:00 +19°C° 0 mm 1 mps 763 mmHg 91%
    04:00 +19°C° 0 mm 1 mps 762 mmHg 91%
    05:00 +19°C° 0 mm 1 mps 762 mmHg 91%
    06:00 +19°C° 0 mm 1 mps 763 mmHg 90%
    07:00 +19°C° 0 mm 1 mps 763 mmHg 90%
    08:00 +20°C° 0 mm 1 mps 763 mmHg 89%
    09:00 +21°C° 0 mm 1 mps 764 mmHg 84%
    10:00 +23°C° 0 mm 1 mps 764 mmHg 78%
    11:00 +24°C° 0 mm 2 mps 764 mmHg 72%
    12:00 +25°C° 0 mm 2 mps 763 mmHg 70%
    13:00 +26°C° 0 mm 2 mps 762 mmHg 68%
    14:00 +26°C° 0 mm 2 mps 762 mmHg 66%
    15:00 +25°C° 0 mm 1 mps 762 mmHg 72%
    16:00 +24°C° 0 mm 1 mps 762 mmHg 78%
    17:00 +23°C° 0 mm 1 mps 762 mmHg 83%
    18:00 +21°C° 0 mm 2 mps 763 mmHg 87%
    19:00 +20°C° 0 mm 2 mps 763 mmHg 91%
    20:00 +19°C° 0 mm 2 mps 764 mmHg 95%
    21:00 +19°C° 0 mm 2 mps 764 mmHg 95%
    22:00 +19°C° 0 mm 2 mps 764 mmHg 95%
    23:00 +19°C° 0 mm 2 mps 764 mmHg 95%

    22 December, Saturday

    Time Temperature Precipitation Wind Pressure Humidity
    00:00 +19°C° 0 mm 2 mps 764 mmHg 95%
    01:00 +19°C° 0 mm 2 mps 763 mmHg 95%
    02:00 +20°C° 0 mm 2 mps 763 mmHg 95%
    03:00 +19°C° 0 mm 2 mps 763 mmHg 95%
    04:00 +19°C° 0 mm 2 mps 763 mmHg 95%
    05:00 +19°C° 0 mm 2 mps 763 mmHg 95%
    06:00 +19°C° 0 mm 2 mps 763 mmHg 94%
    07:00 +20°C° 0 mm 2 mps 764 mmHg 93%
    08:00 +21°C° 0 mm 1 mps 764 mmHg 92%
    09:00 +21°C° 0 mm 2 mps 764 mmHg 86%
    10:00 +24°C° 0 mm 2 mps 764 mmHg 80%
    11:00 +25°C° 0 mm 2 mps 764 mmHg 74%
    12:00 +25°C° 0 mm 2 mps 763 mmHg 75%
    13:00 +25°C° 0 mm 2 mps 763 mmHg 76%
    14:00 +25°C° 0 mm 2 mps 762 mmHg 77%
    15:00 +24°C° 0 mm 2 mps 762 mmHg 81%
    16:00 +23°C° 0 mm 2 mps 763 mmHg 84%
    17:00 +23°C° 0 mm 2 mps 763 mmHg 88%
    18:00 +21°C° 0 mm 2 mps 763 mmHg 90%
    19:00 +21°C° 0 mm 2 mps 764 mmHg 92%
    20:00 +20°C° 0 mm 2 mps 765 mmHg 95%
    21:00 +20°C° 0 mm 2 mps 765 mmHg 95%
    22:00 +20°C° 0 mm 2 mps 765 mmHg 95%
    23:00 +20°C° 0 mm 2 mps 765 mmHg 95%

    23 December, Sunday

    Time Temperature Precipitation Wind Pressure Humidity
    00:00 +20°C° 0 mm 2 mps 765 mmHg 95%
    01:00 +20°C° 0 mm 2 mps 765 mmHg 95%
    02:00 +20°C° 0 mm 2 mps 765 mmHg 95%
    03:00 +20°C° 0 mm 2 mps 764 mmHg 95%
    04:00 +20°C° 0 mm 2 mps 764 mmHg 95%
    05:00 +20°C° 0 mm 2 mps 764 mmHg 94%
    06:00 +20°C° 0 mm 2 mps 765 mmHg 94%
    07:00 +20°C° 0 mm 2 mps 765 mmHg 93%
    08:00 +20°C° 0 mm 2 mps 765 mmHg 92%
    09:00 +21°C° 0 mm 2 mps 765 mmHg 85%
    10:00 +24°C° 0 mm 2 mps 765 mmHg 78%
    11:00 +25°C° 0 mm 2 mps 765 mmHg 71%
    12:00 +25°C° 0 mm 2 mps 764 mmHg 70%
    13:00 +25°C° 0 mm 3 mps 764 mmHg 70%
    14:00 +25°C° 0 mm 3 mps 763 mmHg 69%
    15:00 +24°C° 0.1 mm 3 mps 763 mmHg 74%
    16:00 +22°C° 0.1 mm 3 mps 764 mmHg 79%
    17:00 +21°C° 0.1 mm 3 mps 764 mmHg 84%
    18:00 +21°C° 0.2 mm 3 mps 764 mmHg 86%
    19:00 +20°C° 0.2 mm 4 mps 765 mmHg 87%
    20:00 +20°C° 0.2 mm 4 mps 765 mmHg 89%
    21:00 +19°C° 0.1 mm 4 mps 765 mmHg 88%
    22:00 +19°C° 0.1 mm 4 mps 765 mmHg 88%
    23:00 +18°C° 0.1 mm 4 mps 765 mmHg 88%
    Show more